星链-37454(STARLINK-37454)

导读

STARLINK-37454(NORAD编号69375)是美国太空探索技术公司(SpaceX)星链低轨通信星座的成员卫星,2025年9月由猎鹰9号火箭从美国加州发射入轨,属于星链规模部署阶段的量产型卫星。该卫星采用平板化设计,搭载相控阵通信天线与激光星间链路,初始运行于约550公里高度的近地轨道,主要承担全球卫星宽带接入服务任务,支持低延迟网络传输。2026年SpaceX启动卫星降轨计划后,该卫星已被调整至约480公里高度运行,以降低故障后的空间碎片风险,目前在轨状态稳定。

基本信息
目录编号:
69375
目录名称:
STARLINK-37454
国际标识:
2026-123Y
轨道中心:
EARTH
卫星名称:
星链-37454
卫星全名:
星链-37454(STARLINK-37454)
卫星状态:
在轨 (已飞行92 天)
发射日期:
2026-06-04 UTC
国别 :
美国 (US)
星等 :
--
轨道信息
数据来源 国际轨道数据 AOE轨道数据
星历时间 2026-09-02T14:04:08+0800
1天前
查看轨道信息
2026-08-30T22:00:00+0800
4天前
查看轨道信息
半长轴 6840.823km 6840.867km
偏心率 0.0002036 0.0001085
轨道倾角 53.159° 53.161°
近地点辐角 91.156° 81.716°
升交点赤经 227.363° 239.843°
平近点角 268.968° 284.154°
近地点 461.293km 461.987km
远地点 464.079km 463.473km
周期 93.847分钟 93.848分钟
每日圈数 15.34406 15.343911
详细信息
固有亮度:
5
最大亮度:
2.5
卫星平台:
Starlink V1.0
覆盖范围:
全球
运营商:
太空探索技术公司
运营商所在国:
美国
制造商(研发单位):
太空探索技术公司
制造商所在国:
美国
使用方式:
暂无
卫星简介
Starlink 计划是 SpaceX 推出的全球卫星互联网项目,通过发射低轨道卫星,为全球尤其是偏远地区提供高速、低延迟的互联网服务。自 2019 年起,Starlink 已部署数千颗卫星,旨在缩小全球数字鸿沟,推动互联网普及。该项目还为军事、航空等行业提供通信支持,带来广泛经济效益。
2D轨道图
3D轨道图
轨道高度分析图
轨道倾角分析图
轨道综合分析图
查看轨道综合分析图
交会数据列表
事件ID 空间交会对象 最接近时刻(TCA) 交会距离 交会风险概率(CRP) 交会风险指数(CRI) 操作
CDM_260905-040705-481106-937522
2026-09-05T
04:07:43+0000
0.302 km
远距离
3.727074E-4 高风险 0.86
CDM_260904-184205-878106-937522
2026-09-04T
18:42:12+0000
0.886 km
远距离
1.841122E-5 中风险 0.6
CDM_260904-114005-878106-937522
2026-09-04T
11:40:08+0000
1.471 km
极远距离
3.335049E-6 低风险 0.45
CDM_260904-175805-481106-937522
2026-09-04T
17:58:04+0000
1.672 km
极远距离
3.029953E-6 低风险 0.45
CDM_260904-193105-481106-937522
2026-09-04T
19:31:52+0000
2.034 km
极远距离
1.792503E-6 低风险 0.4
CDM_260904-131305-878106-937522
2026-09-04T
13:13:55+0000
2.154 km
极远距离
1.200097E-6 低风险 0.37
CDM_260904-170805-878106-937522
2026-09-04T
17:08:24+0000
2.483 km
极远距离
9.175925E-7 极低风险 0.34
CDM_260827-221005-371606-937521
2026-08-27T
22:10:24+0000
2.820 km
极远距离
8.537057E-7 极低风险 0.34
CDM_260903-182805-420306-937522
2026-09-03T
18:28:29+0000
2.688 km
极远距离
8.178922E-7 极低风险 0.33
CDM_260903-143105-388606-937521
2026-09-03T
14:31:58+0000
2.556 km
极远距离
5.989475E-7 极低风险 0.31